Pikeville, NC

12:25 PM EDT on September 25, 2016 (GMT -0400)
Goldsboro-Wayne Municipal

Weather History for KGWW - October, 2013

Change the Weather History Date:

Wednesday, October 9, 2013

  Actual Average (KGSB) Record (KGSB)
Temperature  
Mean Temperature 58 °F -  
Max Temperature 60 °F 74 °F 92 °F (2007)
Min Temperature 56 °F 53 °F 39 °F (2000)
Degree Days  
Heating Degree Days 7    
Growing Degree Days 8 (Base 50)    
Moisture  
Dew Point 57 °F    
Average Humidity 97    
Maximum Humidity 100    
Minimum Humidity 91    
Precipitation  
Precipitation 0.14 in - - ()
Sea Level Pressure  
Sea Level Pressure 30.08 in    
Wind  
Wind Speed 12 mph (North)    
Max Wind Speed 17 mph    
Max Gust Speed 28 mph    
Visibility 9 miles    
Events Rain    
Averages and records for this station are not official NWS values.
T = Trace of Precipitation, MM = Missing Value Source: NWS Daily Summary

Daily Weather History Graph

Daily Weather History Graph

Search for Another Location

Airport or City:

Trip Planner

Search our weather history database for the weather conditions in past years. The results will help you decide how hot, cold, wet, or windy it might be!

Date:

Astronomy

Oct. 09, 2013 Rise Set
Actual Time 7:13 AM EDT 6:44 PM EDT
Civil Twilight 6:47 AM EDT 7:09 PM EDT
Nautical Twilight 6:18 AM EDT 7:39 PM EDT
Astronomical Twilight 5:48 AM EDT 8:08 PM EDT
Moon 11:58 AM EDT (10/9) 10:24 PM EDT (10/9)
Length of Visible Light 12h 21m
Length of Day
11h 30m
Waxing Crescent, 25% of the Moon is Illuminated
Oct 9
Waxing Crescent
Oct 11
First Quarter
Oct 18
Full
Oct 26
Last Quarter
Nov 3
New

Hourly Weather History & Observations

Time (EDT) Temp. Dew Point Humidity Pressure Visibility Wind Dir Wind Speed Gust Speed Precip Events Conditions
12:15 AM 56.8 °F 55.0 °F 94% 30.14 in 10.0 mi North 10.4 mph - N/A   Mostly Cloudy
12:35 AM 57.2 °F 55.0 °F 92% 30.13 in 10.0 mi North 11.5 mph 20.7 mph N/A   Scattered Clouds
12:55 AM 57.2 °F 55.4 °F 94% 30.14 in 10.0 mi NNE 10.4 mph - N/A Rain Rain
1:15 AM 56.8 °F 55.9 °F 97% 30.14 in 10.0 mi North 10.4 mph 17.3 mph N/A   Light Drizzle
1:35 AM 56.8 °F 56.3 °F 98% 30.13 in 10.0 mi North 12.7 mph - N/A   Drizzle
1:55 AM 56.7 °F 56.3 °F 99% 30.13 in 10.0 mi North 11.5 mph - N/A   Light Drizzle
2:15 AM 56.7 °F 56.5 °F 99% 30.12 in 10.0 mi North 12.7 mph 17.3 mph 0.01 in Rain Light Rain
2:35 AM 56.7 °F 56.5 °F 99% 30.11 in 10.0 mi NNE 11.5 mph 18.4 mph 0.01 in Rain Light Rain
2:55 AM 56.7 °F 56.5 °F 99% 30.11 in 10.0 mi North 12.7 mph - 0.02 in Rain Light Rain
3:15 AM 56.7 °F 56.7 °F 100% 30.10 in 10.0 mi North 12.7 mph - N/A Rain Light Rain
3:35 AM 56.5 °F 56.5 °F 100% 30.08 in 10.0 mi North 15.0 mph 21.9 mph N/A Rain Light Rain
3:55 AM 56.3 °F 56.3 °F 100% 30.08 in 10.0 mi North 10.4 mph 18.4 mph 0.01 in Rain Light Rain
4:15 AM 56.5 °F 56.3 °F 99% 30.09 in 10.0 mi North 12.7 mph - N/A Rain Rain
4:35 AM 56.3 °F 56.3 °F 100% 30.09 in 10.0 mi North 10.4 mph 19.6 mph N/A   Mostly Cloudy
4:55 AM 56.7 °F 56.3 °F 99% 30.10 in 10.0 mi North 6.9 mph - N/A Rain Rain
5:15 AM 56.5 °F 55.9 °F 98% 30.09 in 10.0 mi North 10.4 mph 17.3 mph N/A Rain Light Rain
5:35 AM 56.5 °F 55.9 °F 98% 30.09 in 10.0 mi North 10.4 mph - N/A   Light Drizzle
5:55 AM 56.7 °F 56.1 °F 98% 30.09 in 10.0 mi North 10.4 mph - N/A   Mostly Cloudy
6:15 AM 57.0 °F 55.8 °F 96% 30.09 in 10.0 mi North 11.5 mph 18.4 mph N/A   Mostly Cloudy
6:35 AM 57.2 °F 55.8 °F 95% 30.09 in 10.0 mi North 13.8 mph 19.6 mph N/A   Mostly Cloudy
6:55 AM 57.6 °F 55.8 °F 94% 30.09 in 10.0 mi North 12.7 mph 16.1 mph N/A   Overcast
7:15 AM 57.7 °F 55.8 °F 93% 30.08 in 10.0 mi North 11.5 mph 18.4 mph N/A   Overcast
7:35 AM 58.1 °F 55.8 °F 92% 30.08 in 10.0 mi North 11.5 mph 19.6 mph N/A   Overcast
7:55 AM 57.7 °F 55.6 °F 92% 30.09 in 10.0 mi North 11.5 mph - N/A   Overcast
8:15 AM 58.1 °F 55.9 °F 93% 30.10 in 10.0 mi North 12.7 mph 18.4 mph N/A   Light Drizzle
8:35 AM 58.3 °F 56.3 °F 93% 30.10 in 10.0 mi North 11.5 mph - N/A   Overcast
8:55 AM 58.3 °F 56.3 °F 93% 30.10 in 10.0 mi North 11.5 mph 19.6 mph N/A   Overcast
9:15 AM 59.0 °F 57.0 °F 93% 30.11 in 10.0 mi North 13.8 mph 20.7 mph N/A   Overcast
9:35 AM 59.9 °F 57.4 °F 91% 30.11 in 10.0 mi North 13.8 mph 24.2 mph N/A   Overcast
9:55 AM 59.9 °F 57.4 °F 91% 30.11 in 10.0 mi North 15.0 mph 20.7 mph N/A   Overcast
10:15 AM 59.9 °F 57.7 °F 93% 30.11 in 10.0 mi North 13.8 mph 20.7 mph N/A   Overcast
10:35 AM 60.1 °F 58.1 °F 93% 30.11 in 10.0 mi North 13.8 mph 19.6 mph N/A   Overcast
10:55 AM 60.3 °F 57.7 °F 91% 30.11 in 10.0 mi North 15.0 mph 23.0 mph N/A   Overcast
11:15 AM 60.3 °F 58.1 °F 93% 30.11 in 10.0 mi North 13.8 mph 23.0 mph N/A   Overcast
11:35 AM 60.3 °F 58.1 °F 93% 30.10 in 10.0 mi North 16.1 mph 25.3 mph N/A   Light Drizzle
11:55 AM 60.3 °F 58.3 °F 93% 30.10 in 10.0 mi North 13.8 mph 21.9 mph N/A   Light Drizzle
12:15 PM 60.1 °F 58.5 °F 94% 30.10 in 10.0 mi North 16.1 mph 23.0 mph 0.01 in Rain Light Rain
12:35 PM 59.9 °F 58.3 °F 94% 30.09 in 10.0 mi North 12.7 mph 21.9 mph 0.01 in   Light Drizzle
12:55 PM 59.9 °F 58.5 °F 95% 30.09 in 10.0 mi North 11.5 mph 19.6 mph 0.01 in Rain Light Rain
1:15 PM 59.7 °F 58.6 °F 96% 30.09 in 10.0 mi North 12.7 mph 20.7 mph N/A Rain Light Rain
1:35 PM 59.5 °F 59.0 °F 98% 30.09 in 10.0 mi North 10.4 mph 19.6 mph 0.01 in Rain Rain
1:55 PM 59.5 °F 59.0 °F 98% 30.08 in 10.0 mi North 11.5 mph 20.7 mph 0.02 in Rain Light Rain
2:15 PM 59.5 °F 59.0 °F 98% 30.08 in 10.0 mi North 11.5 mph 19.6 mph N/A Rain Light Rain
2:35 PM 59.5 °F 59.0 °F 98% 30.08 in 10.0 mi North 13.8 mph 21.9 mph N/A Rain Light Rain
2:55 PM 59.4 °F 59.0 °F 99% 30.07 in 7.0 mi North 13.8 mph 21.9 mph 0.02 in Rain Rain
3:15 PM 59.2 °F 59.0 °F 99% 30.07 in 5.0 mi North 12.7 mph 21.9 mph N/A Rain Light Rain
3:35 PM 59.2 °F 59.0 °F 99% 30.07 in 7.0 mi North 15.0 mph 24.2 mph N/A   Overcast
3:55 PM 59.5 °F 59.0 °F 98% 30.06 in 10.0 mi North 17.3 mph 27.6 mph N/A   Overcast
4:15 PM 59.9 °F 58.5 °F 95% 30.06 in 10.0 mi North 13.8 mph 24.2 mph N/A   Overcast
4:35 PM 59.9 °F 58.1 °F 94% 30.06 in 10.0 mi North 13.8 mph 25.3 mph N/A   Overcast
4:55 PM 59.5 °F 58.1 °F 95% 30.05 in 10.0 mi North 13.8 mph 23.0 mph N/A Rain Rain
5:15 PM 59.0 °F 58.5 °F 98% 30.05 in 5.0 mi North 11.5 mph 19.6 mph 0.01 in Rain Rain
5:35 PM 58.6 °F 58.5 °F 99% 30.05 in 5.0 mi North 12.7 mph 20.7 mph 0.02 in Rain Rain
5:55 PM 58.3 °F 58.3 °F 100% 30.05 in 5.0 mi North 10.4 mph 18.4 mph 0.03 in   Drizzle
6:15 PM 58.1 °F 58.1 °F 100% 30.05 in 10.0 mi North 13.8 mph - N/A   Drizzle
6:35 PM 58.1 °F 58.1 °F 100% 30.04 in 5.0 mi North 11.5 mph 17.3 mph 0.01 in Rain Heavy Rain
6:55 PM 57.9 °F 57.9 °F 100% 30.04 in 7.0 mi North 10.4 mph 20.7 mph 0.02 in Rain Rain
7:15 PM 58.1 °F 58.1 °F 100% 30.04 in 7.0 mi North 12.7 mph 18.4 mph N/A   Drizzle
7:35 PM 58.1 °F 58.1 °F 100% 30.04 in 10.0 mi North 12.7 mph 19.6 mph N/A   Overcast
7:55 PM 58.1 °F 58.1 °F 100% 30.04 in 10.0 mi North 13.8 mph 21.9 mph N/A   Overcast
8:15 PM 58.1 °F 58.1 °F 100% 30.04 in 10.0 mi North 13.8 mph 19.6 mph N/A   Overcast
8:35 PM 58.1 °F 58.1 °F 100% 30.04 in 10.0 mi North 12.7 mph 20.7 mph N/A   Overcast
8:55 PM 58.1 °F 57.7 °F 99% 30.04 in 7.0 mi North 11.5 mph 19.6 mph N/A   Overcast
9:15 PM 57.7 °F 57.7 °F 100% 30.03 in 5.0 mi North 12.7 mph 19.6 mph N/A   Overcast
9:35 PM 57.4 °F 57.4 °F 100% 30.03 in 4.0 mi North 16.1 mph 20.7 mph N/A   Overcast
9:55 PM 57.2 °F 57.2 °F 100% 30.03 in 4.0 mi North 10.4 mph 24.2 mph N/A   Overcast
10:15 PM 57.2 °F 57.2 °F 100% 30.03 in 4.0 mi North 11.5 mph 20.7 mph N/A   Overcast
10:35 PM 56.8 °F 56.8 °F 100% 30.03 in 5.0 mi North 12.7 mph 19.6 mph N/A   Overcast
10:55 PM 56.8 °F 56.8 °F 100% 30.02 in 5.0 mi North 13.8 mph 20.7 mph N/A   Overcast
11:15 PM 56.8 °F 56.8 °F 100% 30.02 in 5.0 mi North 12.7 mph 23.0 mph N/A   Drizzle
11:35 PM 56.8 °F 56.8 °F 100% 30.01 in 10.0 mi North 11.5 mph 20.7 mph 0.01 in Rain Light Rain
11:55 PM 56.7 °F 56.7 °F 100% 30.00 in 7.0 mi North 11.5 mph 20.7 mph 0.01 in   Drizzle